Location: ?????
(31.7405°N, 35.1927°E)
Time: 09:21:26
(UTC+00:00)

Cosmos 1934 Rocket - Pass Details

Date: 17 February 2020
Orbit: 939 x 998 km, 83.0° (Epoch: 27 March)

Event Time Altitude Azimuth Distance (km) Brightness Sun altitude
Rises 02:03:44 0° 353° (N) 3,691 7.0 -29.6°
Reaches altitude 10° 02:06:14 10° 353° (N) 2,747 6.3 -29.1°
Maximum altitude 02:12:34 85° 266° (W) 1,002 3.9 -27.7°
Drops below altitude 10° 02:18:54 10° 178° (S) 2,755 6.3 -26.4°
Sets 02:21:25 0° 178° (S) 3,702 7.1 -25.8°
